QPF
0.01 0.01 0.01 0.01 0.01 0.01 0.02 0.02 0.03 0.03 0.02 0.02 0.01 0.01 0.01 0.00 0.00 0.00 0.01 0.01 0.01 0.01 0.01 0.01 0.01 0.03 0.02 0.01 0.01 0.00 0.00 0.00 0.01 0.01 0.02 0.02 0.02 0.02 0.02 0.01 0.01 0.01 0.01 0.01
0.01 0.00 0.00 0.01 0.01 0.01 0.01 0.01 0.01 0.01 0.01 0.01 0.01 0.00 0.00 0.00 0.00 0.00 0.00 0.01 0.02 0.01 0.01 0.01 0.01 0.01 0.02 0.02 0.01 0.00 0.00 0.00 0.01 0.01 0.02 0.02 0.02 0.02 0.02 0.02 0.01 0.01 0.01 0.01
0.02 0.01 0.01 0.01 0.01 0.01 0.01 0.01 0.01 0.01 0.02 0.02 0.01 0.01 0.01 0.00 0.00 0.00 0.01 0.01 0.01 0.01 0.01 0.00 0.01 0.01 0.01 0.01 0.01 0.01 0.01 0.01 0.01 0.01 0.02 0.02 0.02 0.03 0.03 0.03 0.02 0.02 0.01 0.01
0.02 0.01 0.01 0.01 0.01 0.01 0.01 0.01 0.01 0.01 0.01 0.01 0.02 0.01 0.01 0.00 0.00 0.00 0.01 0.01 0.01 0.01 0.01 0.00 0.00 0.01 0.01 0.01 0.01 0.01 0.01 0.01 0.01 0.02 0.02 0.02 0.02 0.03 0.03 0.03 0.03 0.02 0.01 0.01
0.03 0.02 0.01 0.01 0.01 0.01 0.01 0.02 0.01 0.01 0.01 0.01 0.01 0.01 0.01 0.00 0.00 0.00 0.01 0.02 0.02 0.01 0.01 0.00 0.01 0.01 0.01 0.01 0.01 0.01 0.01 0.01 0.01 0.02 0.02 0.02 0.02 0.02 0.03 0.03 0.03 0.03 0.02 0.01
0.02 0.02 0.02 0.02 0.01 0.01 0.01 0.02 0.01 0.01 0.01 0.01 0.02 0.02 0.01 0.01 0.00 0.00 0.00 0.01 0.02 0.01 0.00 0.00 0.00 0.01 0.01 0.01 0.00 0.00 0.01 0.01 0.01 0.02 0.02 0.02 0.02 0.02 0.03 0.03 0.03 0.03 0.03 0.02
0.02 0.02 0.01 0.01 0.00 0.01 0.01 0.02 0.01 0.01 0.01 0.01 0.02 0.02 0.01 0.01 0.01 0.01 0.00 0.01 0.01 0.02 0.01 0.01 0.00 0.00 0.01 0.01 0.01 0.01 0.01 0.01 0.01 0.02 0.02 0.02 0.02 0.02 0.03 0.03 0.03 0.03 0.02 0.02
0.02 0.02 0.01 0.01 0.01 0.01 0.01 0.01 0.01 0.01 0.01 0.02 0.02 0.02 0.01 0.01 0.01 0.01 0.01 0.01 0.01 0.01 0.01 0.01 0.01 0.01 0.01 0.01 0.01 0.00 0.01 0.01 0.02 0.02 0.02 0.01 0.01 0.02 0.03 0.03 0.03 0.02 0.02 0.02
0.01 0.02 0.02 0.02 0.01 0.02 0.02 0.02 0.02 0.02 0.02 0.02 0.02 0.02 0.02 0.02 0.01 0.01 0.01 0.01 0.01 0.01 0.01 0.01 0.01 0.02 0.01 0.01 0.01 0.00 0.01 0.01 0.02 0.02 0.01 0.01 0.02 0.02 0.03 0.03 0.03 0.02 0.02 0.02
0.01 0.01 0.02 0.02 0.01 0.01 0.02 0.02 0.02 0.03 0.03 0.03 0.02 0.02 0.02 0.03 0.03 0.02 0.01 0.01 0.01 0.01 0.01 0.01 0.01 0.01 0.02 0.01 0.01 0.01 0.01 0.01 0.01 0.01 0.01 0.01 0.02 0.02 0.03 0.03 0.03 0.03 0.02 0.01
0.01 0.01 0.01 0.01 0.01 0.01 0.01 0.01 0.02 0.02 0.03 0.03 0.03 0.02 0.02 0.02 0.03 0.02 0.02 0.02 0.01 0.02 0.02 0.02 0.01 0.01 0.01 0.01 0.01 0.01 0.01 0.01 0.01 0.01 0.01 0.01 0.02 0.02 0.02 0.02 0.02 0.03 0.03 0.02
0.01 0.01 0.01 0.01 0.01 0.01 0.01 0.01 0.01 0.02 0.02 0.02 0.02 0.02 0.02 0.02 0.02 0.02 0.02 0.02 0.02 0.02 0.02 0.02 0.02 0.01 0.01 0.01 0.01 0.01 0.01 0.01 0.01 0.01 0.01 0.02 0.02 0.02 0.02 0.02 0.02 0.03 0.02 0.02
0.01 0.01 0.01 0.01 0.01 0.01 0.01 0.01 0.01 0.01 0.01 0.01 0.01 0.01 0.01 0.02 0.02 0.02 0.02 0.02 0.02 0.02 0.02 0.02 0.02 0.02 0.01 0.01 0.01 0.01 0.01 0.01 0.01 0.01 0.01 0.02 0.02 0.02 0.02 0.02 0.02 0.02 0.02 0.02
0.02 0.02 0.02 0.01 0.01 0.01 0.01 0.01 0.01 0.01 0.01 0.01 0.01 0.01 0.01 0.01 0.01 0.02 0.02 0.02 0.02 0.01 0.01 0.02 0.02 0.02 0.03 0.02 0.01 0.01 0.01 0.01 0.01 0.01 0.01 0.01 0.02 0.02 0.02 0.02 0.02 0.02 0.02 0.02
0.01 0.01 0.01 0.00 0.00 0.01 0.01 0.01 0.01 0.01 0.01 0.01 0.01 0.01 0.01 0.01 0.01 0.01 0.01 0.01 0.02 0.02 0.01 0.01 0.01 0.02 0.02 0.03 0.02 0.02 0.02 0.02 0.01 0.01 0.01 0.01 0.01 0.02 0.02 0.02 0.02 0.02 0.02 0.01
0.01 0.01 0.01 0.00 0.00 0.01 0.01 0.01 0.01 0.01 0.01 0.01 0.01 0.01 0.01 0.00 0.01 0.01 0.01 0.01 0.01 0.02 0.02 0.02 0.02 0.02 0.02 0.02 0.02 0.03 0.03 0.02 0.02 0.01 0.01 0.01 0.01 0.02 0.02 0.02 0.01 0.01 0.01 0.01
0.01 0.01 0.01 0.00 0.00 0.01 0.01 0.01 0.01 0.01 0.01 0.01 0.01 0.01 0.01 0.00 0.00 0.00 0.01 0.01 0.01 0.02 0.02 0.02 0.02 0.02 0.02 0.02 0.02 0.02 0.03 0.03 0.02 0.02 0.02 0.01 0.01 0.01 0.02 0.02 0.02 0.02 0.02 0.01
0.01 0.01 0.01 0.00 0.00 0.01 0.01 0.01 0.01 0.01 0.01 0.01 0.01 0.01 0.01 0.00 0.00 0.00 0.01 0.01 0.01 0.01 0.02 0.02 0.02 0.02 0.01 0.01 0.02 0.02 0.02 0.02 0.02 0.02 0.02 0.02 0.02 0.02 0.02 0.02 0.02 0.02 0.02 0.02
0.01 0.01 0.01 0.00 0.00 0.00 0.01 0.01 0.00 0.00 0.00 0.01 0.01 0.01 0.01 0.00 0.00 0.00 0.01 0.01 0.01 0.01 0.01 0.02 0.02 0.01 0.01 0.01 0.02 0.02 0.01 0.02 0.02 0.02 0.02 0.02 0.02 0.02 0.02 0.02 0.02 0.02 0.02 0.02
0.00 0.00 0.00 0.00 0.00 0.00 0.01 0.00 0.00 0.00 0.00 0.00 0.01 0.01 0.01 0.01 0.01 0.01 0.01 0.01 0.01 0.01 0.01 0.01 0.01 0.01 0.01 0.01 0.01 0.02 0.02 0.02 0.02 0.03 0.03 0.03 0.03 0.02 0.02 0.02 0.02 0.02 0.02 0.02
0.00 0.00 0.00 0.00 0.00 0.00 0.00 0.00 0.00 0.00 0.00 0.01 0.01 0.01 0.01 0.01 0.01 0.01 0.01 0.01 0.01 0.01 0.01 0.01 0.01 0.02 0.02 0.02 0.02 0.02 0.02 0.03 0.03 0.03 0.03 0.03 0.03 0.02 0.02 0.02 0.02 0.02 0.02 0.02
0.00 0.00 0.00 0.00 0.00 0.00 0.00 0.00 0.00 0.00 0.00 0.01 0.01 0.01 0.01 0.01 0.01 0.01 0.01 0.01 0.01 0.01 0.01 0.01 0.02 0.02 0.03 0.03 0.02 0.02 0.03 0.03 0.03 0.03 0.03 0.03 0.03 0.03 0.02 0.02 0.02 0.02 0.02 0.01
0.01 0.00 0.00 0.00 0.00 0.00 0.00 0.00 0.00 0.00 0.01 0.01 0.01 0.01 0.01 0.01 0.01 0.01 0.02 0.01 0.01 0.02 0.02 0.02 0.02 0.03 0.03 0.03 0.03 0.03 0.03 0.03 0.03 0.03 0.03 0.03 0.03 0.02 0.02 0.02 0.02 0.02 0.01 0.01
0.01 0.01 0.01 0.01 0.01 0.00 0.00 0.00 0.00 0.00 0.01 0.01 0.01 0.01 0.01 0.01 0.01 0.01 0.02 0.02 0.02 0.02 0.02 0.03 0.03 0.03 0.03 0.03 0.03 0.03 0.03 0.03 0.03 0.03 0.03 0.02 0.02 0.02 0.02 0.02 0.01 0.01 0.01 0.01
0.01 0.01 0.01 0.01 0.01 0.01 0.01 0.01 0.01 0.01 0.01 0.01 0.01 0.01 0.01 0.01 0.01 0.01 0.01 0.02 0.02 0.02 0.02 0.02 0.02 0.02 0.02 0.03 0.03 0.03 0.03 0.03 0.03 0.02 0.02 0.02 0.02 0.02 0.01 0.01 0.01 0.01 0.01 0.01
0.01 0.01 0.01 0.01 0.01 0.01 0.01 0.01 0.01 0.01 0.01 0.01 0.01 0.01 0.01 0.01 0.01 0.01 0.01 0.01 0.01 0.02 0.02 0.02 0.02 0.02 0.02 0.02 0.02 0.02 0.03 0.03 0.02 0.02 0.02 0.02 0.02 0.01 0.01 0.01 0.01 0.01 0.01 0.00
0.01 0.01 0.01 0.01 0.01 0.01 0.01 0.01 0.01 0.01 0.01 0.01 0.01 0.01 0.01 0.01 0.01 0.01 0.01 0.01 0.01 0.01 0.02 0.02 0.02 0.02 0.02 0.02 0.02 0.02 0.02 0.02 0.02 0.02 0.02 0.01 0.01 0.01 0.01 0.01 0.01 0.01 0.00 0.00
MSLP
1023.14 1023.33 1023.51 1023.64 1023.67 1023.58 1023.34 1022.93 1022.39 1021.74 1021.05 1020.39 1019.82 1019.38 1019.11 1019.00 1019.01 1019.09 1019.18 1019.23 1019.19 1019.06 1018.85 1018.59 1018.35 1018.18 1018.13 1018.24 1018.52 1018.93 1019.44 1020.00 1020.54 1021.02 1021.41 1021.68 1021.85 1021.95 1022.01 1022.03 1022.06 1022.10 1022.14 1022.17
1023.12 1023.17 1023.21 1023.21 1023.13 1022.97 1022.69 1022.32 1021.85 1021.34 1020.83 1020.36 1019.98 1019.72 1019.58 1019.54 1019.57 1019.62 1019.63 1019.55 1019.37 1019.09 1018.73 1018.34 1017.98 1017.71 1017.59 1017.65 1017.89 1018.29 1018.80 1019.37 1019.93 1020.44 1020.87 1021.18 1021.40 1021.53 1021.60 1021.64 1021.66 1021.69 1021.71 1021.72
1023.01 1022.94 1022.85 1022.74 1022.59 1022.38 1022.12 1021.80 1021.45 1021.09 1020.76 1020.48 1020.27 1020.16 1020.12 1020.14 1020.17 1020.16 1020.07 1019.88 1019.56 1019.13 1018.64 1018.13 1017.67 1017.33 1017.14 1017.15 1017.35 1017.72 1018.21 1018.78 1019.36 1019.90 1020.35 1020.71 1020.97 1021.13 1021.23 1021.28 1021.29 1021.30 1021.30 1021.28
1022.81 1022.64 1022.46 1022.28 1022.09 1021.89 1021.68 1021.46 1021.24 1021.03 1020.87 1020.75 1020.70 1020.70 1020.73 1020.76 1020.76 1020.68 1020.49 1020.18 1019.74 1019.20 1018.60 1017.99 1017.46 1017.04 1016.80 1016.76 1016.91 1017.25 1017.72 1018.27 1018.85 1019.40 1019.89 1020.29 1020.59 1020.79 1020.91 1020.97 1020.99 1020.98 1020.95 1020.90
1022.53 1022.31 1022.09 1021.90 1021.72 1021.57 1021.43 1021.32 1021.23 1021.18 1021.16 1021.18 1021.23 1021.29 1021.35 1021.37 1021.32 1021.16 1020.88 1020.46 1019.92 1019.29 1018.61 1017.94 1017.35 1016.88 1016.59 1016.50 1016.61 1016.90 1017.33 1017.85 1018.41 1018.97 1019.48 1019.91 1020.25 1020.49 1020.65 1020.73 1020.75 1020.73 1020.67 1020.58
1022.24 1022.01 1021.80 1021.64 1021.52 1021.44 1021.41 1021.41 1021.45 1021.52 1021.61 1021.72 1021.83 1021.93 1021.97 1021.95 1021.83 1021.59 1021.22 1020.72 1020.10 1019.41 1018.69 1017.98 1017.36 1016.86 1016.53 1016.39 1016.44 1016.66 1017.04 1017.51 1018.05 1018.59 1019.11 1019.56 1019.94 1020.22 1020.41 1020.51 1020.54 1020.51 1020.43 1020.30
1022.00 1021.81 1021.67 1021.58 1021.54 1021.56 1021.62 1021.73 1021.87 1022.03 1022.19 1022.35 1022.48 1022.56 1022.57 1022.49 1022.29 1021.98 1021.54 1020.98 1020.32 1019.60 1018.86 1018.14 1017.50 1016.98 1016.61 1016.41 1016.40 1016.55 1016.85 1017.26 1017.73 1018.25 1018.75 1019.21 1019.61 1019.92 1020.15 1020.28 1020.32 1020.29 1020.19 1020.04
1021.89 1021.79 1021.74 1021.75 1021.81 1021.92 1022.07 1022.26 1022.46 1022.67 1022.86 1023.02 1023.13 1023.17 1023.12 1022.97 1022.71 1022.33 1021.84 1021.25 1020.58 1019.86 1019.13 1018.43 1017.79 1017.25 1016.84 1016.58 1016.49 1016.55 1016.75 1017.06 1017.46 1017.92 1018.38 1018.84 1019.24 1019.57 1019.82 1019.98 1020.04 1020.01 1019.91 1019.74
1021.99 1022.00 1022.06 1022.17 1022.32 1022.50 1022.72 1022.95 1023.18 1023.40 1023.57 1023.70 1023.75 1023.73 1023.61 1023.39 1023.08 1022.66 1022.15 1021.56 1020.90 1020.21 1019.51 1018.83 1018.20 1017.64 1017.20 1016.87 1016.69 1016.64 1016.73 1016.93 1017.23 1017.60 1018.01 1018.42 1018.82 1019.15 1019.42 1019.60 1019.68 1019.66 1019.56 1019.40
1022.33 1022.46 1022.62 1022.82 1023.03 1023.27 1023.51 1023.75 1023.96 1024.14 1024.27 1024.33 1024.32 1024.22 1024.03 1023.76 1023.40 1022.97 1022.46 1021.89 1021.27 1020.62 1019.97 1019.32 1018.70 1018.14 1017.64 1017.25 1016.97 1016.80 1016.76 1016.84 1017.02 1017.29 1017.62 1017.99 1018.35 1018.68 1018.95 1019.14 1019.23 1019.24 1019.16 1019.00
1022.91 1023.15 1023.39 1023.64 1023.89 1024.14 1024.36 1024.56 1024.73 1024.84 1024.89 1024.87 1024.78 1024.61 1024.36 1024.05 1023.67 1023.23 1022.74 1022.21 1021.64 1021.05 1020.44 1019.83 1019.22 1018.65 1018.12 1017.65 1017.27 1016.99 1016.83 1016.77 1016.84 1017.00 1017.24 1017.54 1017.86 1018.17 1018.43 1018.63 1018.75 1018.77 1018.71 1018.58
1023.70 1024.01 1024.29 1024.56 1024.80 1025.01 1025.18 1025.31 1025.39 1025.42 1025.38 1025.27 1025.10 1024.87 1024.57 1024.23 1023.84 1023.42 1022.96 1022.47 1021.96 1021.42 1020.85 1020.28 1019.69 1019.10 1018.54 1018.01 1017.55 1017.17 1016.89 1016.72 1016.67 1016.73 1016.89 1017.12 1017.39 1017.67 1017.92 1018.12 1018.25 1018.30 1018.27 1018.17
1024.61 1024.94 1025.22 1025.46 1025.65 1025.79 1025.88 1025.92 1025.90 1025.83 1025.70 1025.51 1025.27 1024.98 1024.65 1024.29 1023.90 1023.49 1023.06 1022.61 1022.14 1021.65 1021.13 1020.58 1020.00 1019.41 1018.82 1018.25 1017.72 1017.26 1016.90 1016.64 1016.49 1016.47 1016.55 1016.72 1016.95 1017.20 1017.44 1017.65 1017.79 1017.87 1017.87 1017.81
1025.53 1025.84 1026.08 1026.25 1026.36 1026.41 1026.40 1026.33 1026.22 1026.05 1025.83 1025.57 1025.27 1024.94 1024.59 1024.21 1023.82 1023.42 1023.02 1022.60 1022.16 1021.70 1021.20 1020.67 1020.11 1019.52 1018.92 1018.32 1017.76 1017.25 1016.83 1016.50 1016.30 1016.21 1016.24 1016.36 1016.55 1016.78 1017.01 1017.22 1017.38 1017.49 1017.53 1017.51
1026.36 1026.61 1026.78 1026.87 1026.88 1026.83 1026.72 1026.55 1026.34 1026.09 1025.80 1025.48 1025.14 1024.77 1024.39 1024.01 1023.61 1023.22 1022.82 1022.41 1021.99 1021.54 1021.06 1020.54 1019.99 1019.41 1018.81 1018.20 1017.63 1017.10 1016.65 1016.30 1016.06 1015.94 1015.93 1016.02 1016.18 1016.39 1016.62 1016.83 1017.02 1017.15 1017.23 1017.26
1027.00 1027.18 1027.26 1027.26 1027.18 1027.03 1026.83 1026.57 1026.29 1025.97 1025.63 1025.27 1024.89 1024.50 1024.11 1023.71 1023.30 1022.90 1022.50 1022.08 1021.66 1021.21 1020.73 1020.22 1019.67 1019.10 1018.51 1017.92 1017.35 1016.83 1016.38 1016.02 1015.77 1015.63 1015.60 1015.67 1015.82 1016.01 1016.24 1016.46 1016.66 1016.83 1016.95 1017.03
1027.42 1027.53 1027.53 1027.44 1027.28 1027.05 1026.77 1026.45 1026.11 1025.75 1025.37 1024.98 1024.58 1024.18 1023.77 1023.35 1022.94 1022.52 1022.09 1021.66 1021.21 1020.75 1020.26 1019.75 1019.21 1018.65 1018.08 1017.51 1016.97 1016.47 1016.04 1015.69 1015.44 1015.29 1015.25 1015.30 1015.43 1015.62 1015.84 1016.07 1016.29 1016.49 1016.66 1016.78
1027.63 1027.67 1027.60 1027.45 1027.22 1026.93 1026.60 1026.24 1025.86 1025.47 1025.07 1024.67 1024.26 1023.84 1023.42 1022.99 1022.55 1022.10 1021.65 1021.19 1020.72 1020.23 1019.73 1019.21 1018.68 1018.14 1017.59 1017.05 1016.54 1016.07 1015.66 1015.32 1015.08 1014.92 1014.87 1014.91 1015.02 1015.19 1015.41 1015.65 1015.89 1016.12 1016.32 1016.49
1027.67 1027.66 1027.54 1027.34 1027.06 1026.73 1026.36 1025.98 1025.57 1025.17 1024.76 1024.35 1023.93 1023.50 1023.07 1022.62 1022.16 1021.69 1021.20 1020.71 1020.22 1019.71 1019.19 1018.67 1018.14 1017.62 1017.09 1016.58 1016.10 1015.66 1015.27 1014.94 1014.70 1014.54 1014.47 1014.48 1014.58 1014.73 1014.94 1015.18 1015.44 1015.70 1015.94 1016.16
1027.62 1027.57 1027.42 1027.18 1026.87 1026.51 1026.12 1025.71 1025.29 1024.87 1024.45 1024.02 1023.59 1023.15 1022.70 1022.23 1021.75 1021.25 1020.75 1020.23 1019.71 1019.18 1018.66 1018.14 1017.62 1017.11 1016.61 1016.12 1015.67 1015.25 1014.88 1014.56 1014.31 1014.14 1014.05 1014.05 1014.12 1014.26 1014.45 1014.70 1014.97 1015.25 1015.53 1015.80
1027.56 1027.48 1027.30 1027.03 1026.69 1026.31 1025.89 1025.45 1025.00 1024.56 1024.11 1023.67 1023.22 1022.76 1022.29 1021.79 1021.29 1020.76 1020.23 1019.69 1019.15 1018.61 1018.09 1017.57 1017.06 1016.57 1016.10 1015.65 1015.22 1014.82 1014.47 1014.16 1013.92 1013.74 1013.63 1013.61 1013.66 1013.79 1013.98 1014.23 1014.52 1014.83 1015.15 1015.45
1027.54 1027.43 1027.22 1026.92 1026.54 1026.12 1025.66 1025.18 1024.69 1024.21 1023.73 1023.25 1022.76 1022.27 1021.76 1021.24 1020.70 1020.15 1019.59 1019.04 1018.48 1017.94 1017.41 1016.91 1016.42 1015.95 1015.51 1015.09 1014.69 1014.33 1014.00 1013.71 1013.48 1013.31 1013.21 1013.18 1013.23 1013.36 1013.56 1013.82 1014.13 1014.47 1014.82 1015.16
1027.58 1027.44 1027.19 1026.84 1026.41 1025.93 1025.41 1024.87 1024.33 1023.79 1023.25 1022.72 1022.18 1021.64 1021.09 1020.53 1019.95 1019.37 1018.78 1018.21 1017.64 1017.10 1016.57 1016.08 1015.61 1015.18 1014.77 1014.39 1014.04 1013.72 1013.43 1013.18 1012.99 1012.84 1012.77 1012.76 1012.84 1012.99 1013.21 1013.50 1013.84 1014.21 1014.59 1014.95
1027.67 1027.48 1027.17 1026.75 1026.26 1025.70 1025.11 1024.50 1023.89 1023.28 1022.67 1022.07 1021.46 1020.86 1020.25 1019.64 1019.02 1018.40 1017.78 1017.18 1016.60 1016.05 1015.53 1015.05 1014.61 1014.21 1013.85 1013.52 1013.23 1012.97 1012.74 1012.56 1012.42 1012.34 1012.32 1012.37 1012.49 1012.68 1012.95 1013.28 1013.65 1014.05 1014.46 1014.84
1027.77 1027.50 1027.11 1026.62 1026.05 1025.42 1024.75 1024.06 1023.36 1022.67 1021.98 1021.31 1020.63 1019.96 1019.29 1018.62 1017.94 1017.28 1016.63 1016.00 1015.40 1014.84 1014.32 1013.86 1013.45 1013.09 1012.78 1012.51 1012.29 1012.10 1011.96 1011.86 1011.81 1011.81 1011.87 1012.00 1012.19 1012.45 1012.78 1013.15 1013.56 1013.99 1014.41 1014.80
1027.80 1027.45 1026.98 1026.41 1025.75 1025.04 1024.30 1023.53 1022.76 1021.99 1021.23 1020.48 1019.74 1019.00 1018.27 1017.54 1016.81 1016.10 1015.41 1014.75 1014.13 1013.56 1013.05 1012.60 1012.21 1011.89 1011.64 1011.44 1011.29 1011.20 1011.16 1011.16 1011.21 1011.32 1011.48 1011.70 1011.98 1012.31 1012.70 1013.12 1013.56 1014.00 1014.43 1014.80
1027.73 1027.29 1026.74 1026.09 1025.36 1024.58 1023.77 1022.95 1022.12 1021.30 1020.48 1019.68 1018.88 1018.09 1017.30 1016.52 1015.76 1015.01 1014.28 1013.59 1012.96 1012.38 1011.87 1011.44 1011.08 1010.80 1010.60 1010.46 1010.40 1010.40 1010.46 1010.56 1010.73 1010.94 1011.20 1011.51 1011.87 1012.27 1012.71 1013.16 1013.62 1014.06 1014.47 1014.81
Thickness
5402 5412 5414 5418 5423 5426 5425 5427 5429 5440 5444 5450 5451 5452 5455 5458 5462 5466 5468 5470 5472 5473 5475 5478 5482 5486 5489 5493 5498 5502 5505 5508 5510 5513 5514 5516 5517 5518 5520 5521 5522 5522 5521 5520
5397 5411 5412 5413 5418 5420 5423 5426 5429 5434 5437 5442 5442 5442 5442 5446 5451 5455 5457 5459 5461 5464 5467 5470 5473 5477 5481 5484 5488 5492 5495 5498 5501 5503 5505 5506 5508 5509 5510 5512 5513 5513 5512 5512
5388 5396 5403 5400 5407 5413 5417 5419 5423 5425 5428 5430 5432 5434 5434 5436 5441 5445 5447 5450 5452 5454 5457 5460 5464 5468 5472 5475 5479 5482 5485 5488 5490 5493 5495 5497 5498 5499 5500 5502 5503 5503 5503 5503
5375 5383 5385 5398 5402 5406 5408 5408 5410 5415 5418 5419 5422 5424 5426 5428 5431 5435 5438 5440 5442 5444 5447 5451 5455 5459 5463 5466 5469 5472 5475 5477 5480 5483 5485 5487 5488 5489 5490 5492 5493 5494 5494 5494
5365 5368 5378 5394 5396 5393 5396 5399 5400 5403 5406 5407 5410 5415 5417 5420 5423 5425 5428 5431 5433 5436 5439 5442 5446 5450 5454 5457 5460 5462 5465 5467 5470 5472 5474 5476 5477 5478 5480 5482 5483 5484 5485 5485
5356 5363 5371 5386 5389 5389 5390 5389 5393 5395 5395 5396 5401 5404 5408 5411 5413 5416 5419 5421 5424 5427 5429 5433 5436 5441 5444 5447 5450 5453 5455 5458 5460 5462 5464 5466 5467 5468 5470 5472 5474 5475 5475 5475
5348 5353 5366 5375 5378 5385 5380 5385 5386 5387 5388 5388 5389 5394 5397 5400 5402 5406 5409 5412 5414 5417 5420 5423 5427 5431 5435 5438 5441 5444 5446 5448 5450 5452 5454 5456 5457 5459 5461 5462 5463 5464 5465 5465
5339 5346 5360 5369 5371 5370 5371 5375 5377 5378 5380 5380 5382 5384 5387 5390 5392 5396 5398 5401 5404 5406 5409 5413 5417 5422 5425 5427 5431 5434 5437 5438 5441 5443 5445 5446 5448 5450 5451 5452 5453 5453 5454 5454
5344 5353 5358 5359 5361 5363 5365 5366 5369 5369 5371 5372 5374 5375 5378 5380 5382 5385 5388 5391 5393 5396 5399 5403 5406 5411 5414 5417 5420 5424 5426 5428 5430 5433 5434 5436 5438 5440 5442 5443 5444 5444 5445 5445
5338 5347 5350 5352 5354 5356 5358 5359 5362 5363 5363 5364 5365 5367 5369 5371 5373 5375 5377 5380 5383 5386 5389 5392 5396 5400 5403 5407 5411 5413 5415 5417 5420 5422 5424 5426 5429 5432 5433 5434 5435 5436 5436 5436
5334 5339 5343 5348 5348 5349 5351 5353 5354 5355 5356 5356 5357 5358 5359 5360 5362 5365 5368 5371 5373 5376 5379 5382 5386 5390 5394 5398 5401 5403 5406 5408 5410 5413 5415 5417 5420 5422 5425 5426 5428 5428 5428 5428
5334 5337 5335 5339 5341 5342 5343 5345 5345 5346 5347 5348 5349 5350 5351 5351 5353 5355 5358 5361 5363 5366 5369 5372 5376 5380 5384 5388 5392 5394 5397 5399 5401 5403 5406 5408 5410 5412 5415 5417 5418 5419 5420 5420
5330 5332 5331 5332 5334 5336 5336 5337 5338 5338 5339 5340 5341 5342 5343 5343 5344 5346 5349 5352 5355 5357 5360 5363 5367 5370 5375 5379 5383 5386 5389 5391 5393 5395 5397 5399 5401 5403 5404 5406 5407 5409 5410 5411
5324 5326 5326 5327 5327 5328 5328 5329 5330 5330 5331 5332 5333 5334 5334 5335 5336 5338 5340 5343 5346 5349 5351 5354 5358 5361 5365 5370 5374 5377 5379 5383 5385 5386 5388 5390 5392 5393 5395 5396 5397 5398 5399 5401
5319 5320 5320 5320 5320 5320 5320 5320 5321 5321 5322 5323 5324 5325 5326 5327 5328 5330 5332 5336 5339 5341 5343 5346 5349 5353 5357 5361 5364 5367 5370 5373 5375 5377 5379 5381 5383 5384 5386 5387 5388 5388 5390 5392
5314 5314 5314 5313 5313 5313 5313 5313 5313 5314 5314 5315 5315 5316 5317 5318 5319 5322 5324 5327 5330 5332 5335 5338 5341 5344 5348 5352 5355 5358 5361 5364 5367 5369 5371 5373 5374 5376 5377 5378 5379 5380 5381 5383
5307 5307 5306 5306 5306 5306 5306 5306 5307 5307 5307 5308 5308 5308 5309 5310 5312 5313 5316 5319 5321 5324 5327 5330 5333 5337 5340 5343 5346 5349 5352 5355 5359 5360 5362 5364 5366 5367 5369 5370 5371 5372 5373 5375
5303 5303 5302 5302 5301 5301 5301 5301 5300 5301 5301 5301 5302 5302 5302 5302 5303 5305 5308 5311 5314 5317 5319 5322 5326 5329 5332 5335 5338 5340 5343 5346 5349 5352 5354 5356 5358 5359 5360 5362 5363 5364 5366 5367
5298 5297 5296 5297 5297 5296 5296 5295 5295 5295 5295 5295 5294 5294 5294 5295 5297 5298 5300 5303 5305 5309 5312 5315 5319 5321 5324 5326 5330 5332 5334 5337 5340 5343 5345 5348 5349 5351 5352 5354 5355 5357 5358 5359
5292 5292 5291 5291 5291 5290 5289 5289 5289 5288 5288 5288 5288 5288 5288 5289 5289 5291 5293 5295 5298 5301 5305 5308 5311 5313 5316 5318 5322 5324 5326 5329 5331 5334 5337 5339 5341 5343 5344 5346 5348 5349 5351 5352
5286 5286 5285 5284 5284 5283 5283 5283 5283 5282 5282 5281 5281 5281 5281 5282 5283 5284 5286 5288 5292 5296 5299 5302 5304 5306 5308 5310 5313 5316 5318 5321 5323 5325 5328 5330 5333 5335 5337 5338 5340 5342 5343 5344
5278 5278 5278 5277 5277 5277 5276 5276 5276 5276 5275 5275 5275 5275 5275 5276 5276 5278 5280 5282 5286 5290 5292 5295 5297 5300 5302 5304 5306 5308 5310 5313 5315 5318 5320 5323 5325 5327 5329 5331 5333 5334 5336 5337
5273 5272 5272 5271 5271 5270 5269 5269 5269 5269 5269 5269 5269 5269 5270 5271 5272 5273 5275 5277 5280 5284 5286 5288 5291 5294 5296 5297 5299 5301 5303 5306 5308 5310 5313 5315 5318 5320 5322 5324 5325 5327 5329 5330
5267 5266 5266 5264 5264 5263 5263 5264 5264 5264 5263 5264 5264 5264 5265 5266 5267 5268 5270 5272 5275 5278 5280 5282 5285 5288 5290 5290 5292 5294 5296 5299 5301 5303 5306 5308 5310 5312 5314 5316 5318 5320 5322 5323
5261 5260 5259 5258 5258 5259 5259 5259 5258 5258 5258 5258 5259 5260 5260 5261 5262 5263 5264 5266 5269 5271 5273 5275 5278 5280 5281 5283 5285 5287 5290 5292 5294 5297 5299 5301 5303 5305 5307 5309 5312 5314 5315 5317
5255 5254 5254 5254 5254 5254 5254 5254 5254 5254 5254 5255 5255 5256 5256 5257 5257 5258 5259 5260 5262 5265 5266 5268 5270 5272 5274 5276 5279 5281 5283 5285 5287 5290 5292 5294 5297 5299 5301 5304 5306 5308 5309 5311
5249 5249 5249 5249 5250 5250 5250 5250 5250 5250 5251 5251 5251 5252 5252 5252 5253 5253 5254 5255 5256 5258 5259 5261 5263 5265 5267 5269 5272 5274 5276 5279 5281 5283 5286 5288 5291 5293 5296 5298 5300 5302 5304 5305